Location: ????? ????
(37.9717°N, 23.4051°E)
Time: 13:05:45
(UTC+00:00)

Cosmos 44 - Pass Details

Date: 18 April 2024
Orbit: 576 x 779 km, 65.1° (Epoch: 17 May)

Event Time Altitude Azimuth Distance (km) Brightness Sun altitude
Rises 19:16:00 0° 216° (SW) 3,231 6.7 -23.8°
Reaches altitude 10° 19:18:25 10° 219° (SW) 2,318 6.0 -24.2°
Maximum altitude 19:23:44 66° 302° (WNW) 847 3.8 -25.0°
Drops below altitude 10° 19:29:05 10° 25° (NNE) 2,317 6.1 -25.8°
Sets 19:31:30 0° 28° (NNE) 3,231 6.9 -26.2°
